Theta_e
314 314 313 313 312 312 311 311 311 310 310 310 311 310 310 310 309 310 310 310 310 310 311 312 312 311 311 312 313 311 310 307 306 305 304 307 312 317 316 317 314 319 320 313 311 307 306 309 307 309 309 309 308 308 312 310 309 307 300 299 298 299 299 303 301 303 304 303 304 305 306 305 304 307 315 329 330 328 323 319 331 330 334 339 341 347 348 347
314 315 314 313 313 313 312 311 311 311 311 310 310 310 310 310 309 310 309 310 311 311 311 312 312 311 310 311 312 311 309 307 303 303 304 312 313 315 315 316 315 317 320 310 307 305 305 306 307 307 307 304 310 306 311 306 309 303 301 300 298 301 303 305 305 305 303 303 305 305 306 305 305 306 310 309 320 325 321 322 331 332 333 339 344 347 346 345
313 313 314 313 313 313 313 312 312 311 311 311 310 310 310 310 310 310 310 310 309 309 310 310 311 310 309 311 311 309 308 303 303 301 306 319 322 321 321 320 318 317 313 309 307 306 306 307 308 306 305 304 306 304 307 307 307 305 302 298 300 304 304 304 305 304 305 305 304 305 306 305 307 307 311 309 314 323 321 318 326 327 332 335 343 345 345 344
312 312 313 313 313 312 312 312 312 312 312 311 311 311 310 310 310 310 310 310 309 309 309 309 311 310 309 310 311 311 306 303 298 305 314 318 316 317 318 319 323 321 317 312 309 306 307 308 308 306 303 302 304 306 303 306 303 305 302 301 302 305 303 304 305 305 305 305 304 305 306 305 307 308 308 312 313 317 323 323 324 327 330 335 343 344 344 343
312 312 312 312 313 314 314 312 312 312 312 312 311 311 311 310 310 309 309 309 309 308 308 309 309 310 311 311 309 309 303 293 297 308 313 317 316 316 317 320 324 325 319 315 309 308 307 307 307 305 303 299 303 303 303 306 307 306 302 305 304 305 303 305 305 305 305 306 305 305 304 305 309 308 309 311 306 313 320 326 326 328 336 339 341 343 344 342
311 311 311 311 312 312 312 313 313 312 311 311 312 311 311 310 310 309 309 309 309 308 309 309 309 310 310 310 310 306 300 288 304 307 313 313 315 315 316 321 329 327 321 313 307 307 305 305 306 302 301 300 301 299 303 305 307 300 305 304 305 306 303 305 306 306 306 305 305 304 306 308 306 306 308 308 308 313 330 333 331 337 338 341 343 343 343 340
310 310 310 310 311 311 311 312 312 312 312 311 311 311 311 311 310 310 309 309 309 308 309 310 309 310 310 310 307 303 298 300 302 310 313 312 314 314 315 323 332 327 319 309 306 304 304 304 305 302 301 300 301 301 303 303 306 303 301 304 304 307 304 307 306 306 306 305 305 307 309 306 306 303 309 311 314 319 330 335 335 339 340 341 341 343 342 340
309 309 309 310 310 310 310 311 311 312 312 312 311 311 310 310 310 310 309 309 308 308 309 309 309 310 310 306 301 298 299 298 305 309 311 311 309 310 311 319 325 324 314 307 305 303 304 303 302 304 302 299 301 301 304 303 305 301 300 304 305 306 305 306 307 307 307 307 308 307 305 305 307 306 308 309 315 326 333 336 339 339 339 339 341 343 341 340
308 308 308 309 309 309 310 310 310 311 311 310 310 311 311 310 310 310 309 309 308 308 308 308 308 309 310 305 298 295 295 304 308 309 309 308 308 308 307 307 314 317 312 308 306 305 304 303 304 305 300 300 303 301 303 301 299 302 302 304 305 305 306 306 306 306 306 307 307 305 304 306 308 313 310 312 319 335 336 336 338 338 338 338 339 341 340 340
307 307 308 308 308 309 309 309 309 310 311 311 311 310 311 311 310 309 309 309 309 309 308 307 307 308 306 301 298 291 300 303 308 309 308 308 308 307 306 305 306 313 310 308 306 304 303 304 304 306 305 303 304 301 304 301 301 305 303 303 304 305 305 306 305 306 306 306 307 304 304 305 313 311 306 317 334 338 337 336 337 336 335 337 337 339 341 340
307 307 307 307 307 308 308 308 308 309 310 310 311 310 310 310 310 309 309 309 309 309 308 307 307 307 303 302 294 291 307 305 309 309 308 308 307 305 305 305 305 307 310 308 306 305 305 306 307 307 304 301 302 301 302 302 305 304 304 304 304 304 305 306 306 306 307 304 306 306 304 306 312 314 309 324 337 338 336 335 336 335 335 336 337 339 340 340
306 307 307 306 307 307 307 308 308 308 309 310 310 310 310 309 309 309 309 309 309 309 308 308 307 306 303 298 294 296 308 307 309 309 308 308 306 306 306 306 305 305 308 307 306 306 307 307 307 304 298 305 299 302 302 305 304 304 303 300 301 302 301 304 304 305 306 304 306 307 304 302 305 307 311 320 334 339 336 333 334 334 335 336 336 338 338 339
306 306 306 306 306 307 306 308 308 308 308 308 310 310 310 310 309 309 309 309 309 308 308 308 307 305 301 292 297 305 308 308 308 308 308 309 308 309 308 307 306 306 307 306 306 306 307 307 307 302 304 302 301 298 303 305 303 303 302 300 300 300 299 303 304 305 305 305 307 305 295 299 303 308 317 325 330 337 335 332 333 333 334 335 337 337 338 339
305 306 306 306 306 306 306 306 307 307 307 308 308 309 310 310 309 309 309 308 309 308 308 308 307 303 298 293 300 305 308 309 308 306 306 308 306 305 305 306 306 306 307 306 307 308 306 308 306 305 306 302 301 305 302 302 303 297 300 300 297 297 296 303 303 304 302 306 305 306 297 300 304 308 316 327 328 333 331 332 333 333 334 335 336 336 336 338
306 305 305 305 305 306 306 306 306 306 307 307 308 309 308 308 309 309 309 308 308 308 308 308 305 300 294 295 304 307 310 308 304 304 308 306 305 303 303 304 304 305 306 307 307 308 307 306 305 302 300 305 304 300 298 299 299 299 296 293 297 296 298 302 304 304 300 304 306 304 298 301 305 307 319 326 329 331 330 331 332 332 333 334 335 335 335 335
306 305 305 305 305 305 306 305 305 306 306 307 307 308 308 309 309 309 308 308 308 308 307 303 302 299 294 290 299 307 303 301 302 306 307 306 305 302 303 303 304 304 306 306 308 307 307 306 301 302 301 302 299 297 296 296 296 298 296 295 294 296 298 299 302 304 304 304 305 303 298 302 304 312 324 328 329 331 329 330 331 332 333 334 335 335 335 335
306 306 305 305 304 305 305 305 305 305 305 306 306 307 307 308 308 307 308 307 306 307 304 298 301 300 288 301 304 297 298 301 304 304 305 307 306 305 302 302 301 302 304 305 306 305 305 302 303 302 303 299 299 298 294 292 293 294 297 295 297 295 297 296 302 304 304 304 300 303 301 302 305 314 326 330 331 329 329 330 332 332 332 335 335 335 334 334
306 305 305 305 304 304 304 305 304 305 305 305 305 306 306 307 307 306 305 306 306 304 302 304 301 297 293 301 293 297 302 300 301 303 304 307 307 306 303 300 302 302 302 301 304 300 304 300 302 296 298 298 297 296 292 289 293 293 294 294 296 297 298 297 297 301 303 303 301 301 301 302 309 313 320 325 330 328 329 331 331 331 331 334 334 333 334 333
305 305 305 305 304 304 304 304 304 304 305 305 306 307 307 307 306 305 301 301 298 294 289 292 292 284 287 294 298 298 299 301 302 302 301 303 305 306 304 303 303 301 297 298 298 300 301 300 300 296 292 294 295 296 295 296 297 296 296 296 297 295 295 297 300 302 302 300 300 301 299 301 305 311 314 323 327 327 329 332 331 331 332 332 331 331 332 331
306 305 305 305 304 304 303 303 304 304 304 304 304 302 303 297 296 294 298 299 295 295 295 295 295 295 295 296 295 301 303 303 297 301 303 305 304 302 300 300 300 301 298 294 296 298 301 294 292 292 294 295 297 298 298 299 299 299 298 297 296 296 297 300 300 301 303 301 300 301 301 302 304 308 312 321 327 326 329 329 329 330 329 332 331 330 330 330
306 305 305 304 304 303 303 303 303 303 303 304 303 299 290 293 288 286 293 294 297 298 296 296 296 295 294 297 299 299 295 296 299 300 302 308 304 300 296 298 297 294 297 298 296 300 299 293 293 296 297 297 297 299 299 298 299 298 297 296 296 297 296 299 299 301 303 301 299 302 301 301 304 308 311 321 326 323 327 328 330 329 331 332 331 328 328 328
305 305 304 304 304 303 303 303 303 303 303 304 301 295 297 298 300 301 296 288 294 297 297 297 298 296 300 299 300 300 299 294 295 298 303 305 301 295 296 296 294 293 297 297 297 295 292 291 295 297 299 299 298 298 299 298 297 297 296 296 295 296 299 300 300 301 301 300 299 301 300 301 304 307 310 319 324 326 326 325 329 328 326 329 328 328 326 325
304 304 304 304 303 303 302 302 302 303 302 300 298 296 296 302 304 305 302 294 290 297 296 296 295 295 296 300 301 302 294 292 291 296 299 302 299 297 296 294 294 295 296 297 293 292 289 292 297 299 299 297 297 298 298 298 298 297 296 295 294 297 296 293 298 300 300 300 300 301 299 300 305 309 310 319 322 326 327 325 326 327 322 324 325 330 327 326
304 304 304 304 303 302 302 302 303 301 299 298 298 297 301 305 304 302 296 287 286 293 296 297 297 297 296 295 301 299 294 293 294 294 302 300 296 298 296 295 294 295 293 295 295 293 291 295 300 299 298 296 295 296 296 295 294 297 297 296 296 296 297 297 297 299 300 300 300 301 299 299 304 306 310 317 321 323 329 330 330 330 329 325 329 333 330 328
304 304 304 303 302 302 301 302 298 298 300 300 299 303 304 304 303 302 293 288 289 289 300 298 300 299 299 305 303 295 296 296 296 298 301 300 298 296 295 298 296 293 295 296 296 294 294 298 300 296 296 296 295 293 294 296 294 295 297 297 298 298 297 296 298 297 296 296 299 299 292 294 303 305 306 311 316 318 326 325 325 327 329 333 331 331 330 331
304 304 303 302 301 301 302 296 299 301 297 296 298 303 304 303 303 302 294 283 279 288 296 288 301 293 305 297 299 296 298 291 298 299 302 301 304 298 296 294 297 292 295 295 295 296 296 300 298 295 295 294 294 294 295 297 294 294 294 299 298 298 298 297 296 297 293 291 297 301 292 290 300 301 305 308 312 314 321 323 322 323 326 329 329 329 328 329
304 303 302 301 301 301 298 294 301 299 293 295 300 302 302 304 304 299 286 279 277 290 288 296 294 296 301 298 297 298 283 288 299 300 299 302 298 302 293 293 295 297 298 299 295 292 298 297 296 296 295 294 293 292 295 296 295 293 299 298 298 297 296 296 297 297 296 300 298 299 297 294 293 298 305 308 309 310 316 319 321 321 324 326 328 329 330 329
303 302 301 301 301 301 300 301 298 295 295 299 300 301 301 302 304 299 284 272 274 295 288 291 294 303 299 298 298 292 294 297 291 295 300 301 302 298 295 293 293 294 297 297 287 297 298 295 295 294 294 293 292 295 297 297 295 296 299 299 297 297 297 297 297 296 297 296 293 295 298 292 294 299 304 307 305 307 310 314 318 319 321 325 328 328 329 330
302 302 301 301 301 301 304 301 298 294 300 302 303 301 301 303 298 286 280 271 288 290 303 289 303 297 297 298 294 294 294 296 290 296 299 301 303 299 292 295 296 296 298 297 293 295 298 298 297 297 294 292 296 297 298 297 294 298 299 300 299 299 298 298 296 296 296 293 289 294 296 291 292 300 299 303 303 304 308 312 313 316 319 323 326 328 329 330
302 302 301 301 302 302 301 303 298 301 304 304 302 302 301 299 289 277 274 269 295 282 292 293 293 290 295 291 291 292 291 293 296 296 297 295 298 299 298 301 296 295 294 298 297 297 299 302 301 298 295 297 297 299 298 297 298 300 299 297 297 297 297 298 297 296 294 287 291 296 297 294 289 296 298 298 300 304 308 311 314 317 320 325 328 328 327 328
302 301 301 301 299 299 299 295 299 303 304 304 302 300 297 291 280 274 270 279 289 286 291 290 290 295 291 290 287 291 292 294 294 294 292 296 295 297 296 294 299 294 294 294 294 296 298 298 297 299 301 300 300 297 299 299 299 298 296 295 295 294 296 295 294 296 287 285 293 296 296 296 288 294 300 304 305 306 309 309 311 314 319 323 327 327 328 330
302 301 301 302 302 302 295 293 301 304 303 302 298 294 289 277 280 272 275 291 279 285 287 287 292 292 291 293 291 289 288 292 294 292 290 291 291 290 291 288 292 286 286 289 289 295 293 295 298 299 302 300 297 295 296 297 298 296 295 294 289 287 288 284 289 284 285 286 294 297 297 293 292 298 303 305 305 305 308 310 311 314 318 324 327 327 328 331
302 301 302 301 301 301 300 302 303 304 303 299 294 291 281 276 269 279 281 287 279 285 285 293 290 291 291 290 289 289 293 288 293 291 293 293 291 291 294 293 294 292 284 290 290 289 291 296 296 297 298 301 299 292 291 291 294 294 292 291 288 284 283 280 285 288 288 292 295 294 297 291 296 299 304 306 311 312 310 312 313 315 319 323 325 327 328 330
302 302 302 303 301 300 302 305 304 304 300 296 291 285 280 273 274 286 283 285 283 289 289 288 291 292 292 287 289 290 287 292 291 290 292 290 291 289 291 293 294 292 293 291 288 288 284 285 292 295 292 300 298 296 295 294 294 293 296 294 291 290 286 280 285 282 285 289 292 296 291 289 290 295 309 317 317 318 320 321 319 317 320 325 326 327 328 329
302 302 303 303 302 302 302 303 304 304 299 293 286 281 274 274 280 279 281 283 286 287 286 290 288 289 288 290 291 290 291 287 292 290 289 289 288 289 289 290 294 295 294 287 292 290 288 289 294 299 298 299 296 299 300 296 294 296 296 297 292 290 296 287 289 290 290 290 289 291 290 297 295 309 314 313 317 317 319 320 320 322 323 324 324 326 326 328
301 301 302 299 298 303 305 303 305 303 297 290 282 277 276 280 277 283 282 289 287 283 284 287 288 286 287 288 291 288 292 289 290 290 288 290 291 290 292 292 292 294 292 288 292 286 289 287 295 297 299 298 298 300 299 299 287 294 295 290 293 299 296 291 289 294 290 290 287 293 293 299 307 311 312 312 312 314 317 319 321 322 324 324 324 324 327 328
299 301 297 299 299 303 305 304 303 301 296 288 281 277 282 282 286 285 287 285 285 285 284 280 284 285 285 285 287 287 288 291 289 289 285 291 288 292 291 293 296 295 297 295 291 295 287 288 295 294 292 298 301 301 300 300 300 296 290 294 299 301 299 294 285 287 286 284 286 293 290 293 295 291 310 311 309 311 315 317 321 323 323 323 323 324 326 327
298 298 298 298 299 304 304 302 300 297 292 286 280 280 286 282 289 287 290 288 287 286 283 281 283 289 285 286 285 287 289 288 287 289 286 289 286 295 292 292 295 295 297 299 293 293 295 286 290 294 295 297 300 300 297 300 301 297 294 301 293 287 286 293 289 282 282 281 285 291 293 294 296 297 303 308 309 311 313 316 319 320 321 321 323 324 326 328
299 297 291 298 303 304 302 303 300 295 290 282 281 279 284 285 289 287 290 289 288 285 283 284 282 288 290 286 288 288 288 285 288 288 285 287 286 293 292 294 291 296 297 298 294 295 296 286 288 295 294 296 298 296 288 293 298 299 301 296 299 296 292 289 289 292 291 284 283 287 291 288 299 302 304 305 310 313 314 315 317 320 321 321 322 323 325 324
296 293 290 301 303 304 303 302 296 292 286 279 283 282 288 284 287 290 292 290 285 285 284 283 286 284 289 289 289 286 288 289 288 288 289 289 289 294 292 295 292 294 296 298 295 297 291 296 283 291 296 296 289 294 292 293 291 292 294 293 294 295 298 296 296 291 289 286 286 285 287 293 300 305 306 305 309 315 315 316 318 320 320 322 322 322 318 316
297 291 291 304 304 305 301 297 290 285 283 286 286 285 286 285 288 289 291 292 289 292 287 285 285 284 288 288 289 291 288 289 289 288 289 289 290 284 294 294 295 293 296 295 295 296 291 291 286 289 290 290 292 297 297 296 296 294 293 292 294 291 290 287 286 295 292 290 286 286 284 296 306 311 314 309 308 314 318 318 319 320 321 322 321 316 315 316
292 286 289 304 304 303 296 287 287 289 286 284 284 287 286 291 288 289 290 291 290 288 293 289 290 288 290 290 291 290 289 289 289 289 290 288 292 292 294 297 296 296 294 291 293 297 297 295 292 286 289 291 294 297 300 300 299 297 296 294 296 296 295 290 284 289 293 293 296 295 288 293 310 311 314 316 317 318 319 319 319 320 320 319 315 315 317 318
291 288 298 303 304 299 293 286 288 286 286 287 289 288 290 289 288 289 287 289 287 291 289 288 288 288 291 291 291 291 292 288 289 288 290 291 292 294 296 296 297 296 297 295 296 297 297 290 289 289 293 295 297 298 299 300 298 295 296 297 296 293 294 293 292 295 290 292 291 291 287 293 309 313 314 314 317 318 320 319 319 318 319 316 314 316 317 319
291 291 294 302 303 299 290 281 282 284 286 288 288 288 290 289 287 286 286 289 287 287 286 286 289 293 290 294 293 291 294 286 290 291 290 293 292 296 296 296 296 294 294 295 293 297 289 293 291 286 286 288 291 293 294 297 297 295 294 296 297 297 297 297 296 298 290 292 292 289 284 291 309 313 314 314 315 314 315 317 318 316 315 314 315 316 317 317
290 293 294 297 300 297 287 288 286 284 286 286 286 285 287 288 290 289 288 288 291 290 288 287 290 293 291 294 293 294 294 292 289 294 293 293 295 295 296 296 297 296 297 299 300 299 293 291 290 284 280 278 278 280 283 287 291 295 296 295 296 296 296 294 289 292 287 292 293 289 289 303 308 310 311 313 313 313 314 316 316 315 313 314 315 316 315 315
288 283 290 293 295 293 292 293 290 287 285 286 284 286 287 285 290 292 292 290 293 291 291 291 293 295 291 292 292 291 292 295 293 291 292 292 293 293 295 296 296 296 299 303 301 299 293 295 293 291 288 286 288 291 294 295 293 290 293 294 295 296 297 297 295 290 288 292 290 293 295 301 305 307 309 311 311 310 311 312 312 312 313 314 315 314 314 315
293 285 285 284 291 290 289 291 289 289 285 289 283 287 285 286 288 289 294 286 292 290 291 291 290 290 290 292 292 290 292 292 295 294 293 295 296 294 296 296 296 298 302 299 302 297 294 291 292 294 294 292 293 293 295 295 292 293 293 293 295 295 296 295 290 289 296 292 288 295 297 296 301 307 309 310 310 310 310 311 311 311 312 313 314 314 313 314
286 288 289 290 285 284 286 287 290 289 289 289 285 289 286 286 287 284 290 291 290 292 286 291 291 292 293 291 293 289 292 294 296 291 295 296 295 294 293 296 294 299 299 297 301 297 293 288 293 294 294 294 295 295 295 294 294 294 294 294 294 295 295 293 294 296 297 290 290 296 299 297 299 308 311 312 311 309 309 310 311 311 312 313 313 313 313 312
292 291 290 294 286 289 289 290 291 289 288 289 287 288 286 286 285 288 287 286 288 288 291 285 290 293 295 295 294 292 294 290 290 299 298 295 293 292 291 292 295 297 296 296 298 299 295 290 294 294 294 293 294 295 295 294 294 294 294 295 295 295 295 295 296 297 298 296 297 299 299 298 300 305 312 313 313 311 311 312 311 310 310 310 311 311 311 311
287 286 286 291 289 288 290 291 290 290 287 290 285 288 287 287 286 289 291 288 286 289 294 290 292 295 295 295 295 291 293 296 296 292 300 299 295 296 292 293 292 297 296 295 296 299 295 289 294 294 292 293 295 296 296 295 294 293 294 295 295 296 295 296 297 297 298 297 299 298 299 299 310 315 314 314 314 313 311 309 309 310 310 310 310 310 310 310
294 294 291 285 284 288 291 291 289 289 287 289 286 288 288 289 288 291 290 293 290 289 292 291 293 294 296 295 295 294 296 296 297 299 301 301 296 302 295 297 297 293 294 295 297 298 296 292 295 294 288 289 294 294 295 296 296 294 294 294 295 295 294 295 293 298 297 295 297 298 297 297 310 314 313 312 311 310 308 309 309 310 310 309 309 309 309 310
296 298 295 289 283 289 288 290 290 289 286 289 289 289 288 289 291 292 288 294 294 296 295 294 294 294 294 294 291 295 299 300 300 303 303 303 303 304 305 304 302 295 295 295 297 295 293 293 290 290 286 287 295 294 294 295 294 290 290 295 296 297 297 298 298 299 300 301 295 292 295 301 311 313 309 309 309 309 310 310 310 311 310 310 309 309 310 310
Wind_Speed
15 15 15 15 12 11 11 11 11 11 10 11 12 12 11 12 13 13 13 14 15 15 14 14 16 16 15 16 18 17 16 15 16 12 12 13 8 12 9 3 4 4 9 8 8 7 7 7 9 8 8 8 8 8 8 9 6 7 10 10 11 10 12 9 10 8 2 4 9 8 3 2 4 4 2 5 7 4 3 10 5 6 5 1 3 14 20 21
16 14 15 14 15 13 12 11 12 11 12 10 11 12 11 12 13 13 13 14 14 14 14 14 15 16 15 15 18 15 16 15 16 14 18 7 4 10 12 13 10 7 7 9 10 8 7 8 8 10 9 9 7 8 10 8 9 10 8 10 11 9 7 4 5 7 5 5 4 3 1 2 3 5 2 7 6 5 7 10 9 8 8 5 9 17 19 20
16 16 14 14 15 15 15 14 12 12 11 11 11 12 12 11 12 13 13 13 14 15 15 14 16 15 16 14 16 17 17 16 13 15 2 10 3 8 11 13 13 12 11 10 9 8 9 7 8 11 9 9 8 9 11 8 10 11 9 10 11 7 2 4 4 5 6 3 4 5 1 4 5 4 3 8 6 5 9 9 11 12 11 11 14 16 18 19
16 16 16 14 14 16 16 16 15 15 13 12 10 11 12 11 11 11 12 13 13 14 16 15 15 16 15 13 15 16 13 15 11 7 9 7 5 8 9 8 10 14 13 13 9 9 8 6 7 11 9 11 9 9 11 9 10 10 11 10 8 8 5 7 7 6 4 4 6 6 5 7 2 4 6 6 8 8 7 9 11 12 13 13 16 17 17 18
15 15 15 15 15 14 14 15 17 16 15 14 12 11 11 12 11 11 11 13 13 13 15 14 14 15 16 13 15 12 13 9 3 7 8 7 8 12 12 11 9 12 15 12 11 10 9 11 10 11 9 10 9 10 11 12 11 6 13 11 6 1 8 5 8 7 5 2 6 7 8 7 4 8 7 7 8 5 2 8 9 9 12 13 16 17 17 18
15 15 15 15 14 15 15 15 15 16 16 15 14 13 12 11 11 11 10 11 13 14 14 15 13 13 14 13 13 9 7 5 3 5 7 10 10 14 16 14 6 13 14 13 12 11 11 12 12 11 10 11 12 12 12 12 13 10 10 14 8 7 8 5 6 5 5 7 8 8 6 6 8 8 9 9 10 6 1 5 9 6 10 12 13 14 15 17
15 15 15 15 16 16 15 15 15 15 16 16 15 14 13 12 11 11 11 10 11 13 13 14 13 14 13 15 11 8 9 10 3 7 6 11 12 14 18 11 7 13 15 14 15 12 13 13 15 13 11 12 11 13 11 13 12 12 8 12 13 9 10 4 6 5 5 8 8 7 7 9 8 11 4 9 8 7 1 2 6 9 11 13 16 16 15 14
14 14 15 15 15 16 16 16 15 15 14 15 15 14 13 12 11 11 10 11 11 12 12 13 13 13 12 10 9 6 9 11 3 3 6 10 11 14 15 5 2 11 15 16 16 16 14 16 16 13 12 12 9 13 10 12 12 13 13 7 9 12 12 11 8 8 7 7 8 9 9 10 9 9 9 11 7 2 3 5 7 10 12 13 15 15 16 15
15 14 14 14 15 15 15 16 16 16 15 14 14 12 13 14 12 11 10 9 10 9 11 12 13 11 10 9 8 10 11 8 7 2 4 8 11 13 11 4 4 8 12 14 17 16 15 14 16 14 10 13 8 14 11 12 11 14 15 10 8 8 9 10 10 10 9 6 6 8 11 10 8 5 13 12 3 1 3 7 8 10 12 14 15 16 16 14
16 16 15 14 14 15 15 15 16 16 16 15 14 15 13 14 13 12 10 10 10 10 10 12 12 10 9 7 7 8 1 3 1 1 2 9 13 14 7 4 7 6 10 13 14 18 17 11 16 14 8 11 8 11 11 15 3 12 15 12 10 9 8 8 10 9 9 9 6 9 9 8 3 5 5 6 3 2 6 8 9 10 11 13 14 14 14 14
16 16 16 16 15 14 15 15 15 16 16 15 15 15 15 15 14 12 11 10 10 10 11 11 11 11 9 4 8 12 2 3 2 3 7 12 13 11 9 8 6 6 9 10 13 17 16 13 14 5 5 8 8 10 12 12 6 4 11 12 12 10 10 8 9 9 5 8 10 11 11 8 5 7 9 5 6 4 7 9 9 10 11 12 15 15 14 12
16 16 16 16 16 15 15 15 15 15 16 15 15 15 13 12 13 14 12 10 10 11 10 9 10 7 9 11 13 15 2 7 8 11 14 14 10 11 13 11 9 8 8 10 12 14 15 13 12 11 7 6 9 7 11 10 9 6 6 10 12 13 13 13 12 11 9 8 7 7 9 11 10 11 11 3 6 6 7 8 9 10 11 13 15 14 12 11
17 16 16 16 16 16 16 16 16 16 16 15 15 14 13 12 13 13 13 11 10 11 9 9 9 7 10 14 16 16 19 19 18 19 16 11 12 12 12 11 9 8 10 9 10 13 13 10 13 14 9 5 8 6 3 12 10 10 9 8 8 9 11 14 13 12 11 9 9 7 9 11 13 14 6 6 7 8 8 8 9 9 11 12 14 13 12 12
17 17 17 17 17 16 16 15 16 16 16 15 15 14 12 11 13 14 14 12 13 12 11 9 8 9 10 18 12 11 13 12 15 18 17 13 12 13 10 9 8 8 8 10 9 8 7 8 11 13 3 9 7 7 7 9 9 11 10 9 9 8 9 13 13 13 12 9 9 9 10 10 14 15 9 7 7 10 10 9 11 11 12 13 13 12 12 11
16 17 17 17 17 17 17 16 16 16 16 16 16 13 12 11 12 13 14 14 13 12 11 8 9 9 10 13 12 17 19 16 18 19 13 12 10 10 11 10 10 9 8 9 7 7 8 7 10 12 9 8 3 10 8 9 9 10 10 12 10 10 5 10 12 14 14 11 12 11 10 8 14 13 9 9 8 10 10 11 11 12 12 14 13 13 11 10
17 18 17 17 16 16 16 16 16 16 16 16 16 15 13 12 10 10 11 12 13 13 11 11 9 9 11 15 2 4 5 8 10 12 11 10 10 10 4 12 10 9 8 8 4 6 8 9 11 10 10 9 11 10 9 9 9 12 12 10 13 11 7 9 12 13 16 11 13 15 9 9 9 10 9 8 10 11 11 11 12 13 14 14 14 12 10 10
18 17 18 17 16 16 16 16 16 16 16 15 16 16 13 12 10 10 9 10 8 8 7 7 5 6 8 1 4 8 6 9 5 5 5 6 9 10 5 11 11 10 9 7 7 9 11 11 7 5 10 10 11 12 12 12 12 12 12 10 10 14 10 6 13 13 16 12 13 15 12 10 5 12 9 9 10 11 10 11 12 12 12 13 13 12 11 11
17 17 17 17 17 16 15 16 16 15 15 14 13 15 14 11 11 8 8 8 2 2 4 6 4 5 16 17 14 7 5 1 4 4 5 5 8 9 9 10 11 12 11 11 10 14 12 11 10 11 10 12 14 15 15 16 14 13 13 11 8 11 13 9 9 13 12 14 12 15 15 10 6 8 10 10 11 11 10 10 10 11 11 13 12 12 12 9
17 17 17 17 16 16 15 15 15 14 15 15 14 16 17 15 8 8 8 6 7 5 5 9 9 10 6 5 2 6 5 3 6 6 7 9 8 8 8 6 11 15 13 13 11 16 12 10 10 12 16 16 17 17 14 10 14 13 15 12 10 11 12 11 7 9 15 15 13 15 14 14 8 10 11 10 11 10 9 8 8 10 12 12 11 9 11 11
17 17 17 17 15 15 14 14 14 12 13 11 9 8 7 6 5 4 7 10 14 14 11 3 16 14 16 10 5 4 6 7 7 8 6 7 7 10 11 10 13 13 14 13 16 16 13 15 16 18 15 17 17 17 17 5 6 11 14 13 10 10 10 12 6 7 9 11 15 13 14 15 11 12 12 11 10 10 10 9 10 11 11 12 11 12 11 13
17 17 17 17 14 13 13 13 12 11 11 10 10 7 7 8 9 8 6 9 12 15 17 15 15 17 16 12 4 5 5 4 7 3 6 7 9 12 13 14 15 14 14 14 14 12 14 15 17 17 16 16 18 16 13 7 11 11 12 13 10 11 9 12 10 8 6 10 12 14 14 15 13 12 13 11 11 12 12 13 13 13 11 10 12 12 12 11
18 19 17 16 15 13 12 13 11 10 11 8 7 8 8 8 5 5 4 10 13 16 19 19 17 18 17 20 17 6 5 8 8 10 7 10 10 14 15 16 18 15 15 14 14 13 15 19 15 17 15 14 16 18 13 10 10 12 10 11 10 11 5 9 8 7 5 9 9 14 13 12 13 13 13 13 12 11 11 10 10 9 6 9 11 11 11 10
18 18 19 16 14 12 11 10 8 8 8 8 8 10 10 5 3 3 4 8 14 15 18 19 19 20 20 16 13 9 13 12 9 10 12 11 12 15 16 16 17 15 16 18 16 15 14 15 16 16 15 15 16 16 14 11 9 9 11 10 12 11 10 9 9 9 6 9 7 13 15 11 12 12 12 12 13 10 12 11 6 9 14 11 10 9 12 13
18 18 18 16 12 10 9 8 10 11 9 11 12 11 6 3 5 4 6 7 9 12 15 18 20 18 20 16 9 16 14 11 12 11 10 13 12 12 12 21 19 16 17 20 19 15 14 11 15 14 14 16 17 16 16 12 11 11 12 11 10 13 12 4 12 9 5 6 4 6 12 10 10 12 11 12 12 10 7 5 11 9 10 10 15 12 13 13
19 18 16 13 9 8 6 8 8 7 7 8 10 6 4 4 2 4 6 5 8 14 13 16 13 15 14 9 6 12 14 12 12 8 10 14 14 12 10 14 13 17 16 20 18 15 15 11 16 16 17 17 16 15 18 15 11 11 13 11 9 10 13 4 8 12 8 9 11 11 11 11 12 15 15 13 12 12 7 10 12 13 8 10 13 12 10 9
19 16 11 7 5 4 3 7 3 4 5 6 5 2 0 1 2 1 4 5 9 5 11 8 12 9 10 12 11 10 7 12 15 12 7 13 10 11 8 13 12 17 19 20 16 10 11 11 16 18 17 17 17 15 18 17 12 10 11 9 6 9 12 8 6 11 11 10 13 12 12 8 12 16 16 14 15 14 10 11 13 13 12 10 10 10 10 9
16 14 8 4 3 4 5 3 5 7 8 2 2 6 5 3 2 3 2 6 9 9 11 7 11 8 7 14 15 12 8 10 12 15 13 11 13 10 12 13 12 9 12 10 9 12 11 18 17 17 18 17 16 15 17 19 13 11 12 12 7 7 8 9 8 10 8 6 7 10 12 9 10 14 16 17 16 15 14 13 14 14 13 11 10 10 10 10
14 11 6 5 3 5 5 7 8 7 6 2 5 4 8 4 1 2 3 4 3 12 8 6 3 7 8 14 18 15 6 13 13 14 16 12 11 11 10 17 15 15 16 14 15 8 14 16 18 18 17 15 15 14 15 19 14 6 13 15 12 8 8 7 8 8 7 2 8 11 14 10 7 9 17 17 17 17 17 17 16 16 14 12 12 10 10 11
12 9 6 5 6 4 6 6 7 8 5 2 3 2 5 4 4 2 4 6 3 3 6 12 7 10 6 15 17 17 4 8 5 17 16 12 14 5 11 12 16 14 14 17 11 9 10 14 16 16 14 14 13 15 14 18 16 7 9 13 10 9 7 8 8 9 8 6 10 13 14 12 12 7 11 14 16 18 17 17 18 18 15 14 13 12 11 10
10 9 6 4 6 7 5 4 8 6 4 1 3 4 6 3 3 5 4 7 2 4 3 6 9 10 13 14 14 17 9 6 2 15 16 12 15 4 7 5 14 15 14 14 14 8 10 12 13 12 15 11 13 13 14 17 15 8 11 13 12 10 9 7 7 8 8 10 14 14 16 14 10 13 12 13 15 15 14 14 14 15 15 14 13 13 11 10
9 8 7 4 5 3 5 7 1 1 1 2 3 7 5 4 5 5 7 2 3 6 1 8 8 12 14 14 11 14 11 5 9 17 15 13 14 13 9 9 9 11 11 12 15 10 11 15 14 11 12 10 12 12 15 16 15 11 10 12 11 10 9 8 8 7 8 12 12 15 12 16 13 9 10 12 14 16 15 16 16 15 15 14 13 12 11 11
10 8 8 7 5 3 5 4 3 1 1 4 3 2 4 5 3 5 6 6 3 2 2 7 9 10 12 11 9 15 12 8 10 17 16 15 15 15 16 14 15 15 15 16 16 13 13 14 12 13 11 14 15 13 13 16 14 14 13 13 14 11 7 9 10 11 13 9 7 16 15 10 16 8 2 10 13 16 16 14 16 17 17 16 15 13 11 11
8 9 11 9 7 6 8 7 4 3 3 1 2 2 4 4 7 11 9 1 1 3 3 8 10 9 10 9 9 16 11 10 13 16 16 15 14 14 17 15 18 13 15 17 15 14 11 13 16 12 12 13 15 14 14 16 16 17 16 16 15 13 13 12 13 7 7 9 5 5 10 12 5 12 6 7 6 4 8 12 13 15 16 14 14 12 11 12
9 10 8 4 6 6 4 3 2 3 1 2 4 3 4 5 5 5 9 4 3 1 4 5 4 8 11 9 10 16 10 7 17 15 17 14 14 14 16 18 19 16 9 16 17 16 13 15 15 17 12 16 17 14 14 12 16 16 14 15 14 11 10 10 10 12 11 9 9 6 8 7 13 5 6 7 3 2 3 5 7 10 13 13 13 12 13 14
10 11 6 5 5 5 5 5 4 4 3 3 3 6 7 8 3 6 5 8 4 5 5 8 7 10 11 7 10 16 8 7 13 16 16 15 14 14 17 14 18 16 11 14 12 9 17 8 12 15 7 18 17 16 14 15 13 14 13 12 14 14 7 9 2 6 10 8 8 11 7 2 4 6 3 1 4 5 5 7 9 9 9 11 13 13 14 14
10 3 2 2 1 1 2 3 5 5 4 4 5 6 7 2 2 4 4 6 2 7 12 10 8 9 9 9 9 16 8 4 14 13 12 14 13 13 15 12 16 19 14 13 12 12 12 9 18 16 7 18 17 16 14 15 12 14 14 16 15 10 9 3 2 5 5 2 8 5 9 5 5 6 4 5 6 7 7 8 10 11 12 14 13 14 16 14
6 4 1 2 1 1 1 2 3 5 4 5 6 5 2 2 1 5 7 8 5 6 7 4 7 6 11 10 10 15 12 8 15 12 11 13 12 14 17 14 15 16 14 11 12 9 12 9 18 15 15 14 16 11 12 17 10 11 15 13 10 7 7 7 7 4 6 9 5 10 12 10 10 5 7 8 9 10 10 11 11 12 14 15 14 15 16 16
6 4 2 2 3 1 0 3 4 4 5 5 6 4 1 4 1 7 4 6 5 3 6 6 2 5 11 10 12 15 14 9 15 12 10 14 7 13 15 12 18 16 15 11 8 10 10 10 14 16 15 15 16 13 13 14 17 10 12 8 11 8 8 8 5 9 11 11 7 9 10 9 11 7 8 10 11 12 13 13 13 14 14 15 14 15 14 14
4 4 1 4 3 1 2 4 4 4 5 6 4 4 0 4 4 5 5 6 3 6 5 3 6 5 3 9 12 14 15 10 15 10 10 12 8 15 15 10 14 15 17 13 10 9 9 9 10 13 15 15 12 13 15 15 14 8 10 14 12 8 10 9 8 4 7 8 8 9 11 8 8 7 12 13 13 13 13 14 15 16 15 14 12 12 13 13
3 2 4 6 2 2 4 5 4 4 4 5 3 3 3 7 4 3 5 5 3 4 3 5 9 5 4 6 12 11 13 12 14 10 8 10 5 15 16 14 13 18 15 15 10 13 6 8 10 13 16 17 13 13 15 15 16 14 12 13 12 10 5 9 9 12 7 6 7 6 6 8 7 7 12 12 12 13 15 15 13 12 13 12 13 12 12 14
2 1 3 4 1 3 4 4 5 4 3 1 3 4 5 4 6 7 7 4 6 6 7 7 8 4 4 6 9 11 7 10 13 10 7 12 8 9 15 15 14 17 16 17 12 13 6 9 9 13 13 14 12 13 14 17 16 15 13 12 13 13 10 11 11 11 11 8 6 7 7 4 5 3 2 5 11 11 12 13 11 12 13 13 9 13 15 14
5 2 4 4 1 4 4 5 2 2 3 3 3 4 5 5 7 7 7 6 8 5 3 4 6 5 4 1 8 9 9 11 11 9 7 11 10 6 15 18 16 16 15 13 11 15 7 8 10 12 12 12 12 16 15 13 16 16 15 13 13 12 11 10 9 9 8 7 3 4 6 4 4 1 0 1 3 8 10 11 11 12 13 14 12 15 15 16
5 4 3 0 2 3 6 3 1 1 2 3 4 6 6 6 7 7 8 5 6 2 3 3 4 5 1 1 3 7 6 9 10 8 9 11 13 5 17 22 21 18 13 11 13 9 1 9 12 11 11 12 7 8 13 12 15 17 17 15 14 15 15 12 9 5 9 8 7 3 3 3 1 1 1 3 2 5 7 9 11 11 12 14 16 16 16 17
3 3 2 3 3 4 6 3 4 3 3 2 4 6 5 7 8 8 6 6 3 2 2 3 4 3 2 2 2 5 3 8 5 7 9 10 10 8 18 22 25 16 16 11 10 14 8 9 11 12 10 11 8 9 12 14 13 13 14 16 15 13 15 13 11 7 7 13 12 6 7 3 5 2 4 6 6 6 8 9 11 12 13 15 17 17 16 16
1 2 2 1 3 4 3 3 3 4 5 6 6 6 6 5 4 8 8 9 6 5 3 3 5 7 3 1 2 4 5 3 9 1 3 9 7 8 15 21 24 17 16 13 10 12 5 10 13 13 14 16 16 17 18 18 18 12 14 17 17 16 17 14 9 7 8 10 15 10 6 6 5 3 6 9 8 8 7 9 11 12 13 15 16 17 17 16
2 3 1 3 3 4 5 4 5 5 6 6 8 4 4 4 2 5 7 9 8 7 7 8 6 3 3 3 4 4 7 4 1 7 8 7 7 6 13 20 21 17 18 14 11 13 5 8 10 10 11 11 9 8 8 11 11 15 17 17 18 17 15 14 9 8 9 6 10 13 10 7 7 8 9 10 10 11 11 11 11 13 15 15 15 15 15 16
2 2 3 3 2 5 5 4 5 4 4 6 6 5 6 6 8 6 3 2 2 3 4 4 4 5 1 2 3 3 5 6 5 6 6 9 5 8 15 19 18 17 12 11 14 11 6 8 14 10 11 11 11 10 8 13 15 14 14 17 17 18 17 16 11 10 7 7 8 9 12 9 8 11 11 12 12 13 12 11 12 12 14 15 15 17 18 17
2 1 1 1 4 3 4 1 2 5 7 6 5 5 7 9 8 6 2 3 5 4 2 0 3 5 4 1 2 2 5 7 6 5 7 4 9 12 11 15 16 13 13 13 15 10 9 6 14 10 9 1 3 7 10 14 15 17 17 16 17 18 18 18 14 13 10 8 6 9 9 10 9 10 13 14 15 14 14 14 14 13 12 14 16 18 19 18
1 2 3 4 4 5 7 9 10 9 9 7 5 4 7 7 9 6 2 3 3 3 6 2 3 2 3 3 2 5 5 6 4 6 4 5 10 13 11 13 13 13 15 13 14 9 6 5 11 11 7 7 6 5 7 10 14 17 18 18 18 19 20 18 15 14 9 8 7 3 12 15 9 8 12 12 13 14 14 13 14 15 15 16 18 18 18 18
4 4 3 3 5 8 8 6 6 6 6 4 3 4 5 6 8 9 4 3 7 6 2 5 9 8 6 7 3 5 8 8 6 3 5 3 9 7 12 9 9 12 15 13 12 10 8 7 11 11 8 7 5 3 6 10 10 14 16 18 18 17 17 19 17 16 13 12 5 5 6 9 4 6 11 12 13 14 14 16 17 17 18 18 18 18 18 18
3 3 3 5 7 3 6 6 6 6 5 3 4 5 4 6 7 9 10 5 4 5 6 8 10 9 5 3 6 7 7 8 8 7 5 4 2 4 2 6 9 13 16 12 11 10 11 4 7 8 6 8 7 6 7 8 10 13 15 18 19 18 18 18 16 15 15 13 12 8 8 8 7 9 11 13 15 17 18 17 17 16 18 18 18 18 18 19
5 2 4 2 4 4 6 5 7 5 3 0 3 5 5 8 9 8 7 1 3 5 4 7 9 8 4 7 5 6 7 8 8 7 5 2 3 2 2 2 3 11 11 11 10 10 11 6 6 7 7 6 8 7 7 6 9 12 14 17 18 15 14 14 15 14 13 13 11 9 10 7 12 13 14 14 16 17 17 18 18 18 19 18 19 18 18 18
Wind_Direction
309 300 303 301 296 298 300 303 303 303 309 311 311 318 322 324 324 327 327 327 326 331 330 334 328 323 329 332 328 335 329 310 306 291 273 259 287 296 284 323 288 220 242 241 240 229 208 199 193 175 200 190 202 217 173 206 186 196 209 222 224 231 228 220 225 204 38 197 152 162 149 282 248 355 71 237 203 249 220 205 178 176 177 267 92 134 129 137
325 315 300 301 301 295 293 294 295 300 303 302 306 310 316 321 322 320 324 330 329 330 334 331 325 326 329 334 329 334 315 306 297 288 262 281 200 267 270 265 248 233 233 241 229 213 216 192 188 184 196 205 156 211 162 192 193 202 208 222 233 216 237 253 210 204 201 188 143 170 190 283 319 319 46 290 226 215 192 203 186 181 174 137 123 132 132 142
328 323 313 303 302 299 299 294 289 292 291 296 301 305 308 314 320 317 326 326 328 330 327 331 329 324 329 335 334 320 303 302 294 271 119 55 326 272 268 259 243 228 222 230 219 233 223 203 184 195 200 208 177 195 185 180 195 212 228 220 230 241 194 198 178 222 242 313 240 233 234 253 301 285 338 270 297 225 224 192 190 188 173 156 143 141 137 144
330 330 324 320 307 297 294 294 296 293 290 288 295 299 302 308 310 318 321 318 323 329 326 326 329 330 324 333 338 305 308 299 267 133 84 39 354 324 314 294 250 218 220 235 245 237 229 238 202 206 198 225 182 212 189 183 198 193 226 229 230 217 207 207 222 226 224 246 269 268 283 271 238 286 291 299 281 236 231 208 194 191 178 158 155 152 144 150
333 332 329 324 320 314 302 295 290 289 292 291 286 291 298 300 305 313 316 312 319 325 324 324 327 328 332 338 316 303 307 285 108 96 60 10 357 345 338 309 263 216 206 213 221 228 214 208 199 208 214 209 194 198 211 187 206 205 222 232 253 94 231 217 209 211 232 253 273 276 267 268 342 263 259 272 282 291 219 177 192 195 173 162 163 156 152 158
336 335 334 333 329 322 315 306 298 290 285 286 290 288 287 294 300 306 309 312 324 323 325 325 327 330 332 334 300 302 291 252 68 103 355 2 357 352 339 323 254 207 195 201 203 196 199 202 200 200 205 218 195 204 197 208 193 227 213 234 224 229 239 201 198 201 227 237 245 255 271 309 276 286 270 269 272 282 4 328 176 179 170 160 161 154 158 161
338 336 336 335 332 330 324 315 306 295 288 284 282 282 285 286 291 297 303 312 315 320 321 324 327 325 340 303 292 275 254 281 223 71 12 356 348 356 340 332 149 192 189 191 196 194 197 196 202 200 205 214 208 212 199 200 195 228 226 205 220 219 230 164 229 187 218 249 257 268 297 279 283 272 297 279 272 268 329 259 192 157 159 163 163 164 162 164
340 338 336 334 332 330 330 326 318 307 301 293 285 286 284 282 285 289 301 304 312 318 319 321 324 325 337 315 316 263 250 252 319 54 24 2 338 350 340 3 66 185 194 197 191 198 194 203 199 200 214 207 192 205 183 198 192 214 235 211 228 225 228 236 237 242 247 252 260 271 273 268 268 285 299 275 271 315 208 203 161 163 161 171 169 161 165 164
338 337 338 334 332 331 331 329 324 320 310 295 286 280 282 281 278 288 293 298 305 308 314 317 316 330 317 290 300 295 262 262 288 307 346 358 346 332 336 11 326 205 211 208 201 199 198 204 206 206 207 211 193 207 186 198 204 217 223 222 215 215 222 226 236 238 243 250 248 259 258 259 259 301 271 261 248 92 193 174 156 167 170 172 172 173 165 159
335 335 333 333 332 331 329 328 325 322 316 311 299 290 283 278 280 277 281 289 296 297 304 316 313 324 296 295 280 268 313 34 167 237 4 351 338 325 310 345 351 236 219 218 211 206 203 198 208 198 260 237 193 211 187 208 240 189 218 222 222 221 216 207 226 220 227 237 240 249 251 245 166 249 235 162 96 163 177 163 170 177 180 177 173 170 155 154
329 330 331 329 331 329 326 325 325 322 321 317 310 301 288 277 276 274 273 280 290 289 301 310 320 301 289 276 251 245 39 303 42 322 316 328 324 313 311 315 322 266 233 232 229 214 204 213 205 191 235 225 183 212 207 207 224 195 210 216 226 234 230 221 218 233 218 231 227 240 249 256 220 230 257 108 123 153 181 162 171 182 176 177 170 161 159 162
324 322 324 327 326 326 326 322 321 321 321 322 315 307 294 282 277 276 272 269 279 289 300 307 310 290 275 262 244 234 334 301 302 298 304 308 304 298 294 288 280 253 234 227 226 219 208 213 207 193 197 173 206 197 216 205 216 199 194 212 223 225 233 223 228 218 217 230 210 219 254 234 216 228 228 188 144 162 174 161 171 177 174 176 168 160 159 158
317 319 318 319 321 321 321 321 319 320 319 319 316 311 298 288 275 274 270 266 261 278 287 299 297 285 279 268 251 257 261 272 283 287 287 285 285 278 273 267 256 240 235 243 223 219 209 213 206 205 227 214 192 196 124 185 205 217 212 238 206 209 225 218 217 222 213 218 210 201 224 207 203 216 178 175 172 172 165 169 173 175 172 174 163 162 163 159
317 314 314 315 314 317 318 318 320 317 319 317 314 311 303 288 281 271 264 266 279 275 284 287 286 287 274 262 273 269 269 268 276 277 272 278 274 270 256 232 227 225 224 233 241 216 211 205 206 220 189 229 195 102 187 181 191 206 204 220 233 214 222 192 201 194 210 193 201 203 236 201 189 199 165 165 189 180 175 171 176 171 172 168 164 163 166 154
310 312 311 312 314 313 315 316 315 316 314 315 315 311 302 288 283 284 282 277 269 277 277 274 267 277 261 272 265 258 254 261 262 259 265 256 243 258 239 218 210 211 208 214 225 214 202 186 196 211 205 216 322 186 186 190 186 207 195 209 217 231 189 164 183 189 204 168 201 203 229 222 178 172 159 167 181 191 180 177 176 172 172 167 164 160 149 153
308 309 308 308 308 311 309 312 312 311 311 313 312 310 299 286 279 287 285 281 287 283 274 261 256 245 286 286 312 76 231 223 238 240 239 232 230 236 226 190 187 183 189 192 232 186 199 186 199 197 196 176 210 200 188 190 198 205 213 202 201 204 184 170 182 194 206 179 191 209 212 220 168 146 156 160 181 190 190 180 176 173 170 169 166 158 154 149
304 301 304 305 305 306 307 307 310 310 310 313 315 302 295 288 278 270 279 281 271 243 233 243 253 228 253 132 275 264 263 217 239 241 217 220 220 225 221 170 178 171 182 169 187 177 184 199 180 214 222 204 200 204 199 199 195 199 202 222 197 192 201 209 154 192 197 214 184 203 236 216 176 161 157 168 187 187 196 178 180 172 174 171 168 159 153 141
305 301 299 301 300 302 303 304 308 311 312 314 308 302 292 282 274 263 233 223 244 221 212 232 230 258 246 243 262 258 64 98 198 242 223 192 212 219 229 181 171 166 166 161 172 185 176 196 178 205 190 208 197 203 205 199 195 187 186 208 182 202 204 196 171 175 189 197 208 191 221 227 169 181 177 179 186 190 189 178 178 173 176 178 173 165 145 134
312 307 302 298 297 299 301 303 306 314 318 316 294 279 264 261 251 250 253 210 189 183 206 196 196 190 35 126 237 275 260 306 284 253 224 200 203 221 222 233 174 167 172 176 173 189 172 198 186 211 202 198 201 204 207 209 200 193 187 192 187 193 191 211 137 133 187 184 211 195 205 218 189 194 194 181 182 183 192 167 180 187 179 177 169 150 114 113
318 315 311 302 295 294 297 301 306 314 323 306 304 304 268 248 205 213 210 212 225 240 264 267 196 238 292 265 262 344 289 238 248 206 214 176 184 192 197 194 175 185 179 191 163 197 171 198 196 204 202 196 199 204 211 234 244 181 188 194 200 198 192 204 151 126 182 200 204 199 205 213 199 200 195 184 175 186 184 170 188 190 188 176 161 139 128 119
318 315 312 309 295 291 292 299 307 311 310 304 298 287 262 258 247 250 181 224 236 248 256 256 224 231 247 267 258 351 341 185 233 204 200 166 201 173 182 184 176 192 192 186 167 171 188 209 210 204 203 194 195 200 208 188 202 175 186 197 194 205 198 186 179 140 171 216 190 206 201 210 200 196 196 175 183 188 190 186 188 190 185 160 143 132 127 121
320 316 312 307 296 287 292 294 310 310 294 285 279 266 273 280 330 341 306 273 242 241 245 249 252 246 246 253 259 280 273 282 255 225 184 191 185 197 169 191 181 191 179 183 168 175 199 211 203 200 201 196 189 197 186 192 182 195 196 194 203 196 184 151 168 150 158 207 210 188 205 204 197 196 194 185 189 194 182 201 190 175 184 159 154 126 124 137
320 317 312 306 293 285 289 308 315 304 289 264 254 255 258 299 2 339 289 274 275 256 252 244 236 239 245 243 245 232 244 237 238 205 184 196 181 218 169 193 185 187 179 187 182 180 199 210 203 194 198 193 186 190 186 195 208 194 204 196 204 188 186 178 179 178 174 206 225 184 206 203 196 198 197 196 202 194 190 176 173 185 170 191 167 149 146 144
322 319 312 304 292 281 302 322 293 275 263 258 258 258 294 36 293 276 260 261 285 269 235 229 228 230 232 227 214 207 215 232 226 230 170 192 198 203 202 195 185 192 190 190 193 193 201 185 195 181 176 180 181 188 197 202 202 209 210 205 202 186 193 255 169 172 153 192 320 176 201 197 186 189 197 205 205 202 152 149 186 180 178 176 181 166 159 161
325 321 315 307 294 302 324 305 278 282 312 279 254 257 289 272 227 261 269 274 244 260 229 237 222 228 229 213 158 194 211 239 226 226 186 197 192 184 208 193 199 198 191 188 198 205 202 192 170 172 181 187 192 192 199 197 203 196 212 212 208 175 186 107 131 168 183 192 207 205 198 206 184 201 204 197 198 199 177 205 205 196 169 171 170 160 154 164
329 325 327 324 322 337 302 273 282 347 302 285 334 339 90 289 250 256 248 253 274 246 131 216 160 217 171 185 172 201 184 228 209 215 193 202 213 200 177 201 204 193 190 188 201 208 189 158 168 180 183 189 194 200 194 200 205 194 186 211 177 180 190 180 170 189 195 210 174 204 227 201 179 195 197 194 194 195 197 212 213 205 180 177 161 157 155 161
337 336 341 352 345 318 266 293 358 302 283 255 63 355 329 306 303 259 231 229 269 186 177 107 179 112 185 174 171 173 191 216 170 196 204 201 206 210 214 190 187 221 185 173 196 204 191 170 181 190 187 187 194 201 192 199 205 208 165 182 167 169 176 188 203 205 212 172 78 212 222 238 181 198 196 193 197 196 198 207 214 210 198 184 175 184 181 180
340 335 333 326 303 256 292 305 292 285 296 359 173 290 319 321 54 112 248 284 244 106 149 161 261 133 212 151 172 186 57 104 150 182 194 175 217 187 238 194 189 189 175 181 196 154 183 170 185 182 189 192 199 198 185 198 212 193 161 181 190 194 193 192 209 207 223 253 213 192 203 241 238 177 184 190 199 200 203 208 208 210 204 193 189 188 190 189
339 332 323 332 320 280 279 273 291 287 342 65 349 303 300 310 246 250 236 250 119 76 80 106 119 152 166 162 179 204 122 190 250 148 173 174 208 219 208 210 191 187 180 191 189 121 184 185 184 185 189 198 194 195 185 192 209 152 166 185 191 198 204 208 211 216 207 212 224 197 182 218 218 153 181 185 205 200 201 208 212 209 205 195 192 188 183 188
338 327 311 317 289 229 230 247 262 294 299 359 248 301 290 224 185 225 184 236 94 145 202 111 191 165 162 165 183 203 209 159 80 140 164 178 180 254 234 223 191 179 184 196 221 148 174 184 183 194 196 195 192 190 177 188 213 127 190 183 193 202 206 205 231 223 223 228 224 214 184 212 222 207 190 186 203 202 193 205 212 208 204 194 191 187 182 184
333 315 293 288 271 324 305 271 312 44 10 337 8 309 262 188 226 234 203 160 26 82 215 154 155 148 169 172 173 190 203 145 154 161 156 174 171 194 160 168 191 179 184 186 215 175 171 173 184 198 195 198 176 167 184 188 198 174 184 191 178 198 202 208 208 223 229 235 217 213 201 197 230 197 192 193 193 201 197 202 205 208 202 196 188 185 179 178
332 309 286 267 276 272 261 288 3 296 336 348 333 288 216 199 223 236 196 122 253 8 294 166 153 170 178 186 178 173 182 182 164 172 166 174 168 184 184 180 174 168 184 182 193 176 186 181 179 183 200 190 172 185 178 193 187 194 190 190 189 177 181 202 199 204 217 227 209 204 198 200 223 232 101 184 190 194 202 206 207 207 204 195 187 180 179 172
312 299 288 267 258 234 241 266 275 281 353 329 277 234 219 230 210 222 243 23 129 354 355 315 180 175 177 176 176 164 182 176 166 182 171 171 176 190 189 200 185 193 178 177 177 181 179 177 181 169 187 195 190 187 174 189 186 196 196 188 189 183 188 204 202 210 221 207 96 202 197 229 207 224 177 173 129 182 198 209 211 208 208 195 184 173 176 169
284 288 282 281 261 260 264 257 263 252 204 196 241 204 244 226 225 352 253 58 51 161 306 334 310 194 172 195 149 165 168 169 163 177 181 171 185 180 186 202 189 193 204 166 196 183 168 179 186 177 190 184 202 205 181 186 179 199 201 197 201 200 190 195 201 199 206 196 165 163 180 221 216 136 77 94 146 193 209 222 227 220 200 190 179 177 176 176
293 279 288 275 252 254 244 237 232 222 220 237 219 233 214 216 314 345 346 358 21 352 316 325 277 209 175 189 145 173 179 136 182 169 184 176 186 186 182 187 191 198 182 171 187 184 188 183 168 183 174 176 196 201 183 184 185 197 204 205 212 213 182 217 208 232 197 188 163 179 205 193 195 89 90 72 162 187 188 215 212 199 184 179 182 177 182 184
280 340 273 264 273 102 217 205 204 200 219 216 221 224 225 11 304 344 5 333 341 341 322 301 245 205 178 168 159 180 194 208 172 179 186 189 183 188 180 180 186 188 184 186 157 181 167 189 156 174 187 180 191 192 187 191 190 182 201 206 207 209 213 188 96 65 15 219 211 168 215 166 109 162 120 184 189 187 193 197 199 185 180 178 179 185 187 187
325 299 218 15 58 78 135 187 188 205 209 239 249 241 314 285 4 344 348 2 318 309 314 312 176 217 176 164 160 179 170 193 166 184 174 184 184 197 183 181 186 190 198 182 163 198 167 147 156 165 171 180 196 190 186 196 215 173 210 201 198 232 260 207 204 134 219 211 214 192 201 193 190 193 167 157 195 190 199 199 190 184 180 182 183 188 189 179
313 309 295 15 11 28 173 165 183 190 233 251 241 272 351 279 14 343 355 334 340 317 293 317 326 286 176 166 162 171 167 188 167 191 170 183 180 183 181 180 181 194 195 193 179 166 173 140 170 178 179 175 190 182 201 204 222 217 205 181 192 174 208 201 233 199 197 214 218 205 211 215 196 178 165 178 194 190 194 194 187 184 187 186 183 191 184 160
287 279 74 30 340 350 157 159 201 220 240 243 261 246 14 280 324 340 339 316 243 301 293 351 323 345 255 167 152 164 166 184 161 187 168 180 192 177 188 162 168 186 196 172 187 163 178 153 149 174 178 164 179 193 200 195 201 262 224 211 205 221 218 197 212 235 200 213 213 216 195 222 189 180 174 177 195 189 187 190 193 189 188 184 176 166 164 146
322 230 69 14 358 214 159 179 208 226 243 269 345 283 2 308 321 305 306 330 322 316 321 304 331 309 323 133 153 153 182 181 169 173 193 162 192 156 193 183 173 183 186 185 187 174 173 166 156 166 175 161 192 195 200 192 182 193 213 206 189 224 226 238 198 220 212 216 206 212 205 220 182 160 176 185 190 186 185 191 189 183 183 173 154 155 129 129
332 336 71 19 70 155 172 206 230 232 276 329 269 300 294 319 319 307 310 269 269 243 270 305 311 309 328 160 157 157 173 166 180 171 193 157 178 160 193 179 175 172 177 186 190 174 188 178 164 163 176 185 193 187 205 194 192 196 205 206 201 196 196 199 213 197 226 226 216 207 222 138 97 19 347 217 186 182 183 183 179 175 177 156 136 120 135 138
312 49 48 49 132 201 231 254 216 275 296 322 0 336 317 340 290 305 306 295 269 275 253 286 279 277 295 218 133 161 172 166 170 174 181 170 180 192 167 182 178 175 177 176 175 175 192 174 165 174 181 181 192 176 209 202 192 205 203 210 207 207 214 213 213 185 209 225 323 224 225 145 65 17 205 10 159 174 171 177 171 171 160 135 129 137 141 142
15 56 38 18 169 238 274 257 144 241 277 352 326 277 278 279 296 305 304 300 305 312 299 267 300 312 13 82 165 160 188 155 175 172 169 182 180 195 164 180 178 180 185 164 158 142 7 193 173 177 174 189 170 162 200 215 196 204 211 216 207 210 204 217 223 192 203 181 197 161 222 103 84 62 182 216 148 154 158 175 167 159 149 129 142 146 148 149
3 20 95 122 205 261 292 25 352 358 344 323 294 299 292 285 285 288 281 302 299 306 281 291 277 275 337 311 272 160 259 160 196 160 168 185 158 140 167 183 178 181 190 168 174 157 177 190 182 167 170 172 171 184 202 208 213 212 208 208 217 212 204 214 229 216 208 210 208 216 217 155 111 173 158 191 177 159 170 166 166 159 140 142 148 147 146 143
246 250 253 202 206 251 307 12 324 320 329 326 317 294 306 271 246 258 270 279 269 262 280 262 285 313 295 288 247 263 259 249 151 46 124 160 118 168 168 187 181 179 197 168 202 160 211 169 193 178 176 177 184 191 193 193 201 204 214 206 211 213 202 199 211 183 217 203 203 212 212 92 125 158 163 169 162 158 167 167 141 135 140 147 151 147 144 143
347 349 102 179 204 233 264 274 279 290 307 319 307 306 287 283 270 267 265 271 265 265 262 283 305 269 277 231 173 188 172 171 292 143 170 146 119 173 175 181 184 177 187 167 184 167 219 178 209 198 198 196 199 199 188 192 189 206 203 212 204 209 211 211 209 220 212 196 212 210 219 145 151 164 158 156 165 165 150 143 146 150 150 149 147 143 142 143
278 12 340 341 281 225 267 271 270 264 281 328 311 340 317 321 324 327 70 304 45 325 294 276 295 318 153 137 102 157 158 139 123 162 144 125 108 127 167 173 184 179 152 160 185 175 195 188 199 222 205 200 189 189 164 192 194 202 206 209 212 205 210 209 212 221 214 226 219 201 208 194 179 167 167 163 161 156 155 152 145 151 155 151 148 143 141 140
355 67 250 341 308 325 309 198 253 276 271 281 286 303 304 317 335 336 286 230 303 287 261 208 278 257 286 340 304 146 157 140 133 121 145 140 124 137 149 174 182 165 152 185 182 191 191 189 188 199 204 152 202 144 175 190 199 194 203 203 205 206 208 214 214 224 222 218 216 175 179 211 196 178 167 168 167 165 163 158 149 148 150 149 146 145 145 143
39 312 275 320 291 290 285 299 297 278 284 275 274 270 301 324 329 331 286 312 256 274 218 321 11 68 65 76 336 101 8 140 88 67 83 136 136 147 156 163 188 176 186 183 185 197 207 194 173 198 196 195 181 180 176 199 202 204 205 208 208 205 208 210 211 213 211 209 248 195 199 207 222 186 159 157 156 156 153 150 145 145 150 150 149 146 144 145
13 339 331 323 267 281 284 288 275 273 275 286 289 305 314 308 314 328 328 256 325 3 111 334 22 13 35 358 40 78 41 40 50 83 36 83 138 165 150 177 163 189 186 186 185 176 235 159 173 182 196 180 170 166 194 205 207 216 212 212 213 212 211 209 209 212 206 229 213 223 204 184 77 118 137 140 149 151 148 152 153 150 152 154 151 147 146 147
318 225 248 300 311 285 286 282 293 298 295 269 246 294 287 303 328 343 328 333 308 320 352 21 7 358 19 13 77 78 28 13 7 2 356 335 100 18 212 160 181 171 185 174 186 163 221 146 179 189 205 175 183 199 186 210 213 219 217 215 211 208 210 206 211 206 208 208 209 220 223 211 134 137 135 147 159 160 159 159 158 160 158 154 151 150 150 148
330 287 192 237 277 307 308 305 299 290 272 290 261 311 312 317 317 327 333 35 1 8 19 6 0 340 30 59 48 344 328 328 339 329 322 298 309 314 338 69 211 180 177 178 174 183 196 196 183 187 203 176 167 203 191 195 205 219 221 213 212 214 215 209 212 206 206 209 208 215 219 212 153 147 151 167 170 169 166 168 165 162 160 157 154 152 151 145